Regional Weather Roundup
Issued by NWS

Home | Current Version | Previous Version | Text Only | Print | Product List | Glossary On
Versions: 1 2 3 4 5 6 7 8 9 10 11 12 13 14 15 16 17 18 19 20 21 22 23 24 25 26 27
000
ASUS42 KFFC 251303
RWRGA
WEATHER ROUNDUP FOR GEORGIA
NATIONAL WEATHER SERVICE PEACHTREE CITY GA
900 AM EDT WED MAY 25 2016

NOTE: "FAIR" INDICATES FEW OR NO CLOUDS BELOW 12,000 FEET WITH NO
SIGNIFICANT WEATHER AND/OR OBSTRUCTIONS TO VISIBILITY.

* = USE WITH CAUTION. THE STATIONS MARKED WITH AN ASTERISK MAY NOT
REPORT WEATHER SUCH AS PRECIPITATION, FOG, OR THUNDER AND ARE NOT
QUALITY CONTROLLED BY NWS.

THE REMARK "TC" DENOTES TEMPERATURE READING IN DEGREES CELSIUS.

GAZ001>058-251400-
NORTH GEORGIA

CITY           SKY/WX    TMP DP  RH WIND       PRES   REMARKS
ATLANTA        MOSUNNY   72  54  53 S8        30.24R
ATHENS         SUNNY     71  58  63 VRB3      30.24R
CHAMBLEE       SUNNY     73  57  57 S6        30.25R
PEACHTREE CITY SUNNY     68  59  73 CALM      30.25R
ROME           MOSUNNY   67  58  72 CALM      30.22R
WEST ATLANTA   SUNNY     70  57  63 VRB3      30.24R
GAINESVILLE    SUNNY     73  55  53 CALM      30.27R
CARTERSVILLE   SUNNY     68  60  75 E3        30.24R


CITY           SKY/WX    TMP DP  RH WIND       PRES   REMARKS
DALTON*        CLOUDY    64  59  82 CALM      30.22R
LAWRENCEVILLE* SUNNY     68  57  68 CALM      30.25R
MARIETTA       MOSUNNY   72  59  64 CALM      30.24R
KENNESAW*      SUNNY     84  57  39 CALM      30.22R
CANTON*        SUNNY     64  52  63 CALM      30.27R
BLAIRSVILLE*     N/A    N/A N/A N/A MISG      30.28R
$$

GAZ059>098-102>109-251400-
CENTRAL GEORGIA

CITY           SKY/WX    TMP DP  RH WIND       PRES   REMARKS
AUGUSTA-BUSH   SUNNY     72  64  76 CALM      30.22S
AUGUSTA-DANIEL SUNNY     75  60  59 SW5       30.24R
COLUMBUS       SUNNY     69  56  62 CALM      30.22R
MACON          SUNNY     70  61  73 S3        30.23R
ROBINS AFB     SUNNY     69  62  77 SE5       30.22R


CITY           SKY/WX    TMP DP  RH WIND       PRES   REMARKS
LAGRANGE*      SUNNY     71  62  71 CALM      30.23R
SYLVANIA*      MOSUNNY   73  66  79 CALM      30.25R
MILLEDGEVILLE* SUNNY     70  61  73 CALM      30.24R
$$

GAZ099>101-110>166-251400-
SOUTH GEORGIA

CITY           SKY/WX    TMP DP  RH WIND       PRES   REMARKS
SAVANNAH       MOSUNNY   75  65  70 SW3       30.25R
VALDOSTA       SUNNY     74  62  66 S7        30.22R
ALMA           SUNNY     74  63  68 S7        30.23R
ST SIMONS      SUNNY     77  65  66 SW7       30.23R
FT STEWART     SUNNY     72  64  75 E1        30.22R
ALBANY         SUNNY     74  60  61 S10       30.24R
MOODY AFB      SUNNY     73  60  64 SE5       30.22R
BRUNSWICK      SUNNY     73  63  68 CALM      30.25R


CITY           SKY/WX    TMP DP  RH WIND       PRES   REMARKS
BAINBRIDGE*    MOSUNNY   72  64  78 CALM      30.21S
MOULTRIE*      SUNNY     72  61  68 S3        30.23R
VIDALIA*       SUNNY     72  63  73 S6        30.23S
WAYCROSS*      MOSUNNY   76  64  67 S6        30.23S
DOUGLAS*       MOSUNNY   75  61  60 S3        30.25R
$$




USA.gov is the U.S. government's official web portal to all federal, state and local government web resources and services.